sat.trackr.live / text

‹ back to catalog

STARLINK-32181

NORAD 60349 · 2024-136W

PAYLOAD ACTIVE UNKNOWN

§ Identity

Operator
Country
US
Launch date
2024-08-02
Launch site
AFETR
Launch vehicle
Mass (kg)
RCS (m²)

Purposes: comms

External: N2YO · Heavens-Above · Gunter

§ Orbital elements

Epoch: 2026-09-21T07:42:26.671392Z

Period
93.85 min
Inclination
53.1573°
Eccentricity
0.0002644
Mean motion
15.34397605 rev/d
Perigee alt
460.9 km
Apogee alt
464.5 km
Semi-major
6,840.8 km
B*
5.3983e-5
RAAN
242.2216°
Arg perigee
75.5209°
Mean anomaly
284.6087°
Rev number
11,968

§ Raw data

STARLINK-321811 60349U 24136W   26264.32114203  .00001447  00000+0  53983-4 0  99912 60349  53.1573 242.2216 0002644  75.5209 284.6087 15.34397605119684

JSON: /api/v1/satellites/60349 · /tle

For live sub-satellite position, see the globe view (requires WebGL).

§ Visibility from observer

Set your observer location to see the next 7 days of passes ≥ 10°. The values pass through the URL so the page stays shareable.

No JS? Fill the form by hand. The geolocation button needs JavaScript.